Location: Burgwalden
(48.2830°N, 10.7576°E)
Time: 03:12:24
(UTC+00:00)

Cosmos 2360 Rocket - Pass Details

Date: 26 September 2023
Orbit: 833 x 845 km, 71.0° (Epoch: 04 December)

Event Time Altitude Azimuth Distance (km) Brightness Sun altitude
Rises 04:12:24 0° 323° (NW) 3,413 5.1 -10.1°
Reaches altitude 10° 04:15:12 10° 312° (NW) 2,474 4.3 -9.7°
Maximum altitude 04:19:48 26° 257° (WSW) 1,601 3.1 -8.9°
Drops below altitude 10° 04:24:24 10° 202° (SSW) 2,461 4.3 -8.2°
Sets 04:27:11 0° 191° (S) 3,391 5.2 -7.7°
